TimePST,TemperatureF,Dew PointF,Humidity,Sea Level PressureIn,VisibilityMPH,Wind Direction,Wind SpeedMPH,Gust SpeedMPH,PrecipitationIn,Events,Conditions,WindDirDegrees,DateUTC
12:56 AM,34.0,30.0,85,30.03,10.0,Calm,Calm,-,N/A,,Clear,0,2012-11-17 08:56:00
1:56 AM,37.9,33.1,83,30.00,10.0,Calm,Calm,-,N/A,,Overcast,0,2012-11-17 09:56:00
2:44 AM,41.0,35.6,81,30.04,10.0,ESE,6.9,-,N/A,,Overcast,120,2012-11-17 10:44:00
2:56 AM,41.0,35.1,79,29.97,10.0,ESE,5.8,-,N/A,,Overcast,120,2012-11-17 10:56:00
3:56 AM,41.0,35.1,79,29.97,10.0,Calm,Calm,-,N/A,,Overcast,0,2012-11-17 11:56:00
4:56 AM,41.0,36.0,82,29.98,10.0,SSE,4.6,-,N/A,,Overcast,150,2012-11-17 12:56:00
5:16 AM,42.8,37.4,81,30.03,10.0,SE,5.8,-,N/A,,Overcast,130,2012-11-17 13:16:00
5:43 AM,41.0,37.4,87,30.03,10.0,Calm,Calm,-,N/A,,Overcast,0,2012-11-17 13:43:00
5:56 AM,42.1,37.9,85,29.99,10.0,SE,6.9,-,N/A,,Overcast,140,2012-11-17 13:56:00
6:22 AM,42.8,37.4,81,30.03,10.0,South,4.6,-,N/A,,Overcast,180,2012-11-17 14:22:00
6:56 AM,41.0,37.9,89,30.01,10.0,South,4.6,-,N/A,,Overcast,170,2012-11-17 14:56:00
7:56 AM,44.1,39.0,82,30.03,10.0,South,8.1,-,N/A,,Overcast,170,2012-11-17 15:56:00
8:19 AM,44.6,39.2,81,30.06,10.0,SSE,10.4,-,N/A,,Overcast,160,2012-11-17 16:19:00
9:08 AM,44.6,39.2,81,30.06,10.0,South,6.9,-,N/A,,Overcast,180,2012-11-17 17:08:00
9:56 AM,46.0,39.0,76,30.01,10.0,South,9.2,-,N/A,,Overcast,170,2012-11-17 17:56:00
10:56 AM,46.9,39.0,74,29.99,10.0,South,15.0,-,0.00,,Mostly Cloudy,180,2012-11-17 18:56:00
11:14 AM,46.4,39.2,76,30.03,10.0,South,15.0,-,N/A,,Overcast,190,2012-11-17 19:14:00
11:56 AM,46.9,39.0,74,29.98,10.0,South,13.8,-,N/A,,Overcast,180,2012-11-17 19:56:00
12:56 PM,48.9,39.9,71,29.97,10.0,SSW,13.8,-,N/A,,Overcast,210,2012-11-17 20:56:00
1:14 PM,51.8,39.2,62,30.00,10.0,SSW,17.3,26.5,N/A,,Overcast,210,2012-11-17 21:14:00
1:56 PM,50.0,39.0,66,29.93,10.0,South,18.4,-,N/A,,Mostly Cloudy,190,2012-11-17 21:56:00
2:56 PM,50.0,39.0,66,29.93,10.0,South,18.4,-,N/A,,Partly Cloudy,180,2012-11-17 22:56:00
3:56 PM,48.9,37.9,66,29.94,10.0,South,17.3,-,N/A,,Clear,190,2012-11-17 23:56:00
4:56 PM,46.0,37.9,73,29.94,10.0,SSW,15.0,-,N/A,,Mostly Cloudy,200,2012-11-18 00:56:00
5:56 PM,45.0,37.9,76,29.95,10.0,SSE,12.7,-,N/A,,Scattered Clouds,160,2012-11-18 01:56:00
6:56 PM,43.0,37.0,80,29.97,10.0,SSE,8.1,-,N/A,,Partly Cloudy,150,2012-11-18 02:56:00
7:48 PM,44.6,39.2,81,30.01,10.0,SSE,10.4,-,N/A,,Mostly Cloudy,160,2012-11-18 03:48:00
7:56 PM,45.0,39.0,80,29.96,10.0,SSE,10.4,-,N/A,,Mostly Cloudy,150,2012-11-18 03:56:00
8:56 PM,43.0,37.9,82,29.98,10.0,South,6.9,-,N/A,,Mostly Cloudy,170,2012-11-18 04:56:00
9:13 PM,42.8,37.4,81,30.02,10.0,South,8.1,-,N/A,,Scattered Clouds,190,2012-11-18 05:13:00
9:56 PM,42.1,37.9,85,29.97,10.0,SSE,9.2,-,N/A,,Scattered Clouds,150,2012-11-18 05:56:00
10:04 PM,41.0,37.4,87,30.01,10.0,SE,6.9,-,N/A,,Mostly Cloudy,130,2012-11-18 06:04:00
10:16 PM,39.2,37.4,93,30.01,10.0,SE,5.8,-,N/A,,Scattered Clouds,140,2012-11-18 06:16:00
10:56 PM,41.0,37.9,89,29.96,10.0,South,11.5,-,N/A,,Clear,170,2012-11-18 06:56:00
11:56 PM,37.9,36.0,93,29.98,10.0,NE,5.8,-,N/A,,Partly Cloudy,50,2012-11-18 07:56:00